Location: Unspecified
(0.0000°N, 0.0000°E)
Time: 12:49:28
(UTC+00:00)

Envisat - Pass Details

Date: 15 December 2017
Orbit: 764 x 766 km, 98.2° (Epoch: 16 December)

Event Time Altitude Azimuth Distance (km) Brightness Sun altitude
Rises 20:40:50 0° 187° (S) 3,230 6.7 -37.4°
Reaches altitude 10° 20:43:22 10° 197° (SSW) 2,302 5.9 -37.9°
Enters shadow 20:45:27 21° 215° (SW) 1,663 5.2 -38.4°
